Location: Utrecht
(52.0830°N, 5.1330°E)
Time: 20:11:09
(UTC+01:00)

Daily predictions for brighter satellites

Satellite Brightness Start Highest point End
(mag) Time Altitude Azimuth Time Altitude Azimuth Time Altitude Azimuth
Cosmos 1190 Rocket 4.0 18:38:00 10° SSW 18:43:09 69° ESE 18:48:21 10° NNE
YAOGAN 1 4.3 18:40:51 10° SSW 18:44:56 40° W 18:49:03 10° NNW
FREGAT/IRIS 3.2 18:43:17 10° SE 18:46:11 37° ENE 18:49:05 10° N
Thor Agena Rocket 3.5 18:42:12 10° NNE 18:47:18 87° ESE 18:52:21 10° SSW
Cosmos 2360 Rocket 2.4 18:43:05 10° NNW 18:48:47 83° WSW 18:54:27 10° SSE
Cosmos 2219 Rocket 2.8 18:43:59 10° NNW 18:49:13 38° NE 18:54:25 10° ESE
Cosmos 1633 3.3 18:46:31 10° SSE 18:49:49 32° E 18:53:08 10° NNE
Cosmos 1782 Rocket 4.5 18:45:51 10° SSW 18:50:14 55° WNW 18:54:40 10° N
Spot 2 Rocket 4.1 18:45:54 10° SE 18:50:26 35° ENE 18:55:01 10° N
Cosmos 2181 Rocket 4.1 18:44:41 10° N 18:50:54 62° ENE 18:57:09 10° SSE
Cosmos 1238 Rocket 2.3 18:50:13 10° N 18:53:11 48° ENE 18:56:03 10° SSE
Cosmos 2208 Rocket 4.2 18:48:45 10° NNW 18:54:10 58° ENE 18:59:30 10° SE
SJ-6B 2.9 18:50:44 10° SSE 18:54:35 53° ENE 18:58:23 10° N
Cosmos 1300 Rocket 4.1 18:52:57 10° SSE 18:57:02 38° E 19:01:09 10° NNE
CZ-4 R/B 4.4 18:53:59 10° SW 18:57:18 23° W 19:00:40 10° NW
NOSS 2-2 (C) 4.1 18:53:54 10° WSW 18:58:09 65° NW 19:03:25 10° NE
Cosmos 405 Rocket 4.2 18:55:24 10° NNE 18:58:28 20° ENE 19:01:30 10° ESE
Meteor 1-25 Rocket 4.4 18:53:33 10° SSW 18:59:13 86° WNW 19:05:00 10° NNE
Cosmos 2219 4.3 18:55:36 10° SSE 19:00:01 23° ESE 19:04:27 10° NE
COSMO-SKYMED 1 2.5 18:56:13 10° NNE 19:00:36 82° ESE 19:04:56 10° SSW
Helios 1B rocket 4.3 19:00:13 10° ENE 19:01:17 11° E 19:02:20 10° E
Helios 1A 4.2 18:58:45 10° ESE 19:02:01 23° ENE 19:05:18 10° N
Envisat 4.4 19:03:33 10° E 19:07:09 20° NE 19:10:46 10° N
Cosmos 1709 Rocket 4.0 19:01:40 10° S 19:07:47 66° E 19:13:52 10° NNE
CZ-2D R/B 4.2 19:04:42 10° ESE 19:07:57 27° ENE 19:11:12 10° N
Cosmos 1954 Rocket 4.1 19:03:55 10° S 19:09:00 58° ESE 19:14:10 10° NNE
SL-16 R/B 3.6 19:04:47 10° NNW 19:09:12 22° NE 19:13:00 12° E
Resurs 01 Rocket 1.9 19:05:11 10° SE 19:09:22 44° ENE 19:13:34 10° N
H-2A R/B 3.3 19:06:18 10° SE 19:09:41 34° ENE 19:13:09 10° N
Resurs 1-3 3.8 19:18:40 10° SE 19:22:54 50° ENE 19:27:10 10° N
Cosmos 1536 3.2 19:19:27 10° SSE 19:23:11 40° E 19:26:57 10° NNE
Cosmos 1939 Rocket 4.4 19:22:45 16° ENE 19:23:37 17° ENE 19:26:11 10° NNE
Meteor 1-11 Rocket 3.8 19:18:25 10° S 19:24:10 63° E 19:30:03 10° NNE
Cosmos 1833 4.1 19:22:28 10° SSW 19:28:08 72° ESE 19:33:45 10° NE
Cosmos 2082 Rocket 4.4 19:24:34 10° W 19:28:48 21° NNW 19:33:04 10° NNE
Cosmos 2333 Rocket 2.4 19:24:28 10° NNW 19:30:09 56° NE 19:35:37 11° SE
ATLAS CENTAUR R/B 3.7 19:27:45 10° WNW 19:30:35 17° NNW 19:33:18 10° NNE
BREEZE-M DEB (TANK) 4.0 19:30:52 10° W 19:33:37 40° SSW 19:39:32 11° SE
Cosmos 1892 Rocket 4.0 19:29:39 10° N 19:33:44 38° ENE 19:37:44 10° SE
Cosmos 1980 3.9 19:28:32 10° NNW 19:34:02 50° NE 19:38:32 15° ESE
Spot 1 4.3 19:30:56 10° SE 19:34:51 45° ENE 19:38:54 10° N
Okean 1 Rocket 3.0 19:30:49 10° S 19:35:16 67° E 19:39:45 10° NNE
HJ-1C 3.4 19:32:30 10° SSE 19:35:52 85° WSW 19:39:17 10° NNW
Cosmos 371 Rocket 4.5 19:31:56 10° N 19:35:57 25° NE 19:37:48 20° E
Aureole 2 Rocket 4.2 19:34:54 10° N 19:37:14 16° NE 19:37:21 16° NE
Cosmos 2285 Rocket 4.0 19:30:56 10° NNW 19:37:25 79° ENE 19:43:51 10° SSE
Cosmos 1023 Rocket 4.4 19:33:37 10° SSW 19:38:43 77° ESE 19:43:54 10° NNE
NOSS 0 Rocket 3.9 19:33:51 10° NNW 19:40:01 68° NE 19:45:49 12° SE
H-2A R/B 4.2 19:39:32 10° NE 19:40:08 10° NE 19:40:44 10° NE
Cosmos 1025 Rocket 2.9 19:37:08 10° N 19:41:32 78° ENE 19:45:56 10° SSE
Cosmos 841 Rocket 4.3 19:37:03 10° NNW 19:41:42 32° NE 19:44:01 23° E
ALOS 2.4 19:37:18 10° S 19:41:59 78° WSW 19:46:42 10° NNW
Cosmos 1602 4.0 19:40:20 10° SSW 19:44:12 71° W 19:48:09 10° N
FENGYUN 3A 3.9 19:42:19 10° S 19:47:44 75° WSW 19:53:12 10° NNW
GEOS 3 Rocket 4.3 19:47:55 21° ENE 19:50:32 32° ESE 19:55:14 10° S
Cosmos 1763 Rocket 3.8 19:48:46 10° NNW 19:53:40 44° ENE 19:56:05 27° ESE
Cosmos 1741 Rocket 3.9 19:50:04 10° SSW 19:55:15 67° ESE 20:00:27 10° NNE
SAR-Lupe-1 3.9 19:52:49 17° SSE 19:55:25 67° ENE 19:58:59 10° N
SAR-Lupe-4 3.4 19:52:42 11° SSE 19:56:03 79° ENE 19:59:40 10° NNW
USA 229 DEB 4.2 19:52:21 10° NW 19:59:21 63° SW 20:06:28 10° SSE
USA 229 4.2 19:52:27 10° NW 19:59:27 64° SW 20:06:35 10° SSE
Meteor 1-5 Rocket 4.3 19:54:42 10° S 20:00:35 65° E 20:06:23 10° NNE
Okean 1-7 Rocket 4.4 19:57:45 10° NNW 20:02:12 54° W 20:06:34 10° S
Cosmos 1544 Rocket 4.0 20:03:19 36° ESE 20:03:52 37° E 20:07:53 10° NNE
USA 186 1.4 20:03:52 67° ENE 20:03:52 67° ENE 20:06:42 10° N
Cosmos 1818 4.2 20:00:43 10° WSW 20:06:06 57° NW 20:11:31 10° NE
Cosmos 1140 Rocket 3.9 20:05:03 10° SW 20:10:09 64° WNW 20:15:20 10° NNE
NOSS 3-1 (A) 3.9 20:04:46 10° NW 20:12:03 76° NE 20:16:52 27° ESE
Cosmos 1602 Rocket 4.2 20:08:39 10° N 20:12:28 35° ENE 20:12:28 35° ENE
USA 215 3.6 20:08:31 21° ENE 20:13:04 63° N 20:19:30 10° W
Cosmos 614 Rocket 4.1 20:08:43 10° SSW 20:13:48 75° WNW 20:18:54 10° NNE
NOSS 8 (H) 4.4 20:11:19 10° SW 20:14:42 67° SE 20:15:06 60° E
Abrixas rocket 4.4 20:13:25 10° SSW 20:14:38 16° S 20:14:38 16° S
ATLAS 2AS CENTAUR R/B 3.6 20:09:48 10° NW 20:17:37 46° NNE 20:21:30 28° ENE
Cosmos 1626 Rocket 4.0 20:14:04 10° N 20:18:06 40° ENE 20:18:06 40° ENE
Cosmos 2237 Rocket 2.1 20:13:38 10° NNW 20:19:24 87° ENE 20:22:36 27° SSE
COSMOS 2428 4.1 20:14:37 10° NW 20:19:51 39° WSW 20:25:03 10° S
Cosmos 468 Rocket 4.2 20:15:16 10° NNW 20:20:30 73° WSW 20:24:41 16° SSE
Gbstr 26 Del rocket 3.1 20:18:24 10° SW 20:21:43 45° S 20:21:43 45° S
Meteor 2-8 Rocket 4.5 20:16:04 10° N 20:22:03 55° ENE 20:24:35 33° SE
Cosmos 1066 Rocket 4.2 20:16:32 10° N 20:22:11 59° ENE 20:24:22 36° SE
Cosmos 1437 2.8 20:22:14 10° NNW 20:25:24 77° NW 20:25:24 77° NW
Cosmos 1515 3.5 20:22:31 10° N 20:26:25 83° E 20:26:52 68° SSE
ARGOS 4.2 20:27:09 28° NE 20:27:09 28° NE 20:31:25 10° N
Cosmos 1610 Rocket 4.3 20:22:49 10° S 20:29:02 80° E 20:35:13 10° NNE
NOSS 3-1 (C) 4.0 20:23:19 10° NW 20:30:40 81° SW 20:35:32 27° SE
Cosmos 2219 Rocket 2.9 20:27:57 10° NW 20:33:22 50° WSW 20:38:13 13° S
Cosmos 405 Rocket 3.6 20:30:52 10° NNW 20:34:51 51° W 20:37:39 18° SSW
Helios 1B rocket 2.3 20:33:06 10° NNE 20:37:17 84° ESE 20:41:27 10° SSW
Helios 1A 3.8 20:33:47 13° S 20:37:21 49° W 20:41:25 10° NNW
SPOT 5 3.8 20:38:45 34° NE 20:38:45 34° NE 20:42:39 10° N
CZ-4B DEB 3.7 20:38:44 46° WNW 20:38:44 46° WNW 20:41:18 10° NNW
Cosmos 1814 Rocket 4.2 20:34:58 10° NNW 20:40:07 66° WSW 20:42:40 29° S
Cosmos 1455 Rocket 4.0 20:43:14 35° NNE 20:43:14 35° NNE 20:45:49 10° NNE
USA 32 3.9 20:36:49 10° N 20:42:05 78° E 20:43:33 48° SSE
Cosmos 2219 3.4 20:37:53 10° SW 20:43:38 75° WNW 20:49:25 10° NNE
Envisat 3.0 20:43:32 37° S 20:45:36 82° WSW 20:50:44 10° NNW
ERS-1 Rocket 2.8 20:45:15 66° E 20:45:37 68° ENE 20:50:40 10° NNW
Resurs 01 Rocket 3.8 20:42:20 10° SSW 20:46:02 26° W 20:49:45 10° NW
Cosmos 2227 Rocket 3.9 20:41:54 10° S 20:43:20 18° S 20:43:20 18° S
SL-16 R/B 2.0 20:48:34 10° NNW 20:54:17 76° ENE 20:54:55 68° ESE
Cosmos 1939 Rocket 3.4 20:58:40 57° WNW 20:58:40 57° WNW 21:02:07 10° NNW
SL-8 Rocket 4.4 21:00:23 45° NE 21:00:23 45° NE 21:05:14 10° NNE
Cosmos 1295 Rocket 4.4 20:59:41 62° ESE 21:00:15 65° E 21:06:31 10° NNE
Cosmos 1441 Rocket 4.2 21:01:39 10° NNW 21:05:08 47° WNW 21:05:08 47° WNW
Cosmos 332 Rocket 4.1 21:01:33 10° NNW 21:06:25 62° WSW 21:06:48 60° SW
NOAA 11 4.4 21:08:45 57° NNE 21:08:45 57° NNE 21:13:27 10° N
H-2A R/B 4.3 21:11:02 16° N 21:11:02 16° N 21:12:06 10° N
ATLAS CENTAUR R/B 3.8 21:08:45 10° NNW 21:10:44 15° N 21:10:44 15° N
Cosmos 2333 Rocket 3.7 21:09:08 10° NW 21:14:12 32° WSW 21:17:42 17° SSW
Cosmos 371 Rocket 3.6 21:11:58 10° NNW 21:16:30 63° W 21:16:30 63° W
H-2A R/B 3.3 21:20:00 32° NNE 21:20:00 32° NNE 21:23:19 10° N
Cosmos 841 Rocket 4.1 21:18:50 10° NNW 21:23:48 49° WSW 21:24:08 48° WSW
Cosmos 2341 Rocket 4.1 21:18:47 10° SSW 21:25:09 74° WNW 21:31:35 10° N
MetOp-A 4.4 21:28:17 66° NNW 21:28:17 66° NNW 21:32:53 10° NNW
GEOS 3 Rocket 3.8 21:29:03 68° NW 21:29:03 68° NW 21:34:07 10° WSW
Cosmos 1727 Rocket 4.1 21:30:06 10° N 21:35:40 70° N 21:35:40 70° N
Terra 4.0 21:46:19 18° N 21:46:19 18° N 21:47:37 10° N
Cosmos 540 Rocket 4.4 21:38:15 10° NNW 21:41:53 45° NW 21:41:53 45° NW
USA 215 3.4 21:55:51 63° N 21:55:51 63° N 22:02:11 10° WNW
Cosmos 2237 Rocket 4.3 21:58:48 10° NW 22:02:44 19° W 22:04:29 17° WSW
ARGOS 4.4 22:08:40 39° NW 22:08:40 39° NW 22:12:10 10° NNW
ATLAS 2AS CENTAUR R/B 3.0 22:01:17 10° NW 22:08:57 79° WNW 22:08:57 79° WNW
SL-16 R/B 4.2 22:33:31 10° NW 22:36:49 21° W 22:36:49 21° W
H-2A R/B 4.3 23:00:38 22° NW 23:00:38 22° NW 23:02:45 10° NNW
